Temperature
19 19 19 19 19 20 20 20 20 20 19 19 19 19 19 19 19 19 19 18 18 18 18 18 18 18 18 18 18 18 18 17 17 17 17 17 17 17 17 17 17 17 17
20 19 19 19 19 19 20 20 20 20 19 19 19 19 19 19 19 19 18 18 18 18 18 18 18 18 18 18 18 18 17 17 17 17 17 17 17 17 17 17 17 17 17
20 20 19 19 19 20 20 19 19 19 19 19 19 19 19 19 19 18 18 18 18 18 18 18 18 18 18 18 17 17 17 17 17 17 17 17 17 17 17 17 17 17 17
20 20 20 20 20 20 20 19 19 19 19 19 19 19 19 19 18 18 18 18 18 18 18 18 18 18 17 17 17 17 17 17 17 17 17 17 17 17 17 17 17 17 17
20 20 20 20 20 20 19 19 19 19 19 19 19 19 19 18 18 18 18 18 18 18 18 18 18 17 17 17 17 17 17 17 17 17 17 17 17 17 17 17 17 17 17
20 20 20 20 20 20 19 19 19 19 19 19 19 19 19 18 18 18 18 18 18 18 18 17 17 17 17 17 17 17 17 17 17 17 17 17 17 17 17 17 17 17 17
20 20 20 20 20 20 19 19 19 19 19 19 19 19 18 18 18 18 18 18 18 17 17 17 17 17 17 17 17 17 17 17 17 17 17 17 17 17 17 17 17 17 16
20 20 20 20 20 19 19 19 19 19 19 19 19 18 18 18 18 18 18 18 18 18 17 17 17 17 17 17 17 17 17 17 17 17 17 17 17 17 17 17 17 17 16
20 20 20 19 19 19 19 19 19 19 19 19 18 18 18 18 18 18 18 18 18 18 17 17 17 17 17 17 17 17 17 17 17 17 17 17 17 17 17 17 17 17 16
20 20 20 19 19 19 19 19 19 19 19 18 18 18 18 18 18 18 18 18 18 18 17 17 17 17 17 17 17 17 17 17 17 17 17 17 17 17 17 17 17 16 16
19 19 19 19 19 19 19 19 19 18 18 18 18 18 18 18 18 18 18 18 18 18 17 17 17 17 17 17 17 17 17 17 17 17 17 17 17 17 17 17 17 16 16
20 19 19 19 19 19 19 19 18 18 18 18 18 18 18 18 18 18 18 18 18 17 17 17 17 17 17 17 17 17 17 17 17 17 17 17 17 17 17 17 17 16 16
20 20 19 19 19 19 19 19 18 18 18 18 18 18 18 18 18 18 18 18 18 17 17 17 17 17 17 17 17 17 17 17 17 17 17 17 17 17 17 17 17 16 16
20 20 20 19 19 19 19 19 19 18 18 18 18 18 18 18 18 18 18 18 18 18 17 17 17 17 17 17 17 17 17 17 17 17 17 17 17 17 17 17 17 17 16
20 20 20 19 19 19 19 18 18 18 18 18 18 18 18 18 18 18 18 18 18 18 17 17 17 17 17 17 17 17 17 17 17 17 17 17 17 17 17 17 17 17 16
20 20 20 19 19 19 19 19 19 18 18 18 18 18 18 18 18 18 18 18 18 18 17 17 17 17 17 17 17 17 17 17 17 17 17 17 17 17 17 17 17 17 16
20 20 20 20 19 19 18 18 18 18 18 18 18 18 18 18 18 18 18 18 18 18 17 17 17 17 17 17 17 17 17 17 17 17 17 17 17 17 17 17 16 16 16
20 20 20 19 19 19 18 18 18 18 18 18 18 18 18 18 18 18 18 18 18 18 17 17 17 17 17 17 17 17 17 17 17 17 17 17 17 17 17 16 16 16 16
20 20 20 19 19 19 18 18 18 18 18 18 18 18 18 18 18 18 18 17 17 17 17 17 17 17 17 17 17 17 17 17 17 17 17 17 17 17 16 16 16 16 16
20 20 19 19 19 19 18 18 18 18 18 18 18 18 18 18 18 18 18 17 17 17 17 17 17 17 17 17 17 17 17 17 17 17 17 17 17 16 16 16 16 16 16
20 20 19 19 19 18 18 18 18 18 18 18 18 18 18 18 18 18 17 17 17 17 17 17 17 17 17 17 17 17 17 17 17 17 17 17 17 17 16 16 16 16 16
20 20 19 19 19 19 18 18 18 18 18 18 18 18 18 18 18 18 18 17 17 17 17 17 17 17 17 17 17 17 17 17 17 17 17 17 17 17 17 16 16 16 16
20 20 19 19 19 19 18 18 17 17 17 17 18 18 18 18 18 18 18 18 17 17 17 17 17 17 17 17 17 17 17 17 17 17 17 17 17 17 17 17 16 16 16
20 20 19 19 19 18 18 18 17 17 17 18 18 18 18 18 18 17 17 17 17 17 17 17 17 17 17 17 17 17 17 17 17 17 17 17 17 17 17 17 17 16 16
20 20 19 19 19 18 18 18 18 18 18 18 18 18 18 17 17 17 17 17 17 17 17 17 17 17 17 17 17 17 17 17 17 17 17 17 17 17 17 17 16 16 16
20 19 19 19 18 18 18 18 17 17 18 17 17 17 17 17 17 17 17 17 17 17 17 17 17 17 17 17 17 17 17 17 17 17 17 17 17 17 17 17 17 16 16
Wind_Speed
7 11 18 18 17 18 18 19 19 20 20 19 19 18 18 17 16 15 14 14 13 13 13 13 13 13 13 13 14 15 15 16 16 16 16 17 17 17 18 18 18 17 19
11 15 19 18 18 18 18 18 19 19 19 18 18 17 17 16 15 14 14 13 13 13 13 13 13 13 14 14 14 15 15 16 16 16 16 17 17 17 17 17 17 16 18
14 16 19 19 19 18 18 18 18 18 18 17 17 16 15 15 14 14 13 13 12 13 13 13 13 13 14 14 14 15 15 15 16 16 15 14 16 16 16 16 17 18 17
15 16 18 20 19 18 18 17 17 17 16 16 16 15 14 14 14 13 13 12 12 12 13 13 13 14 14 14 14 15 15 15 15 15 12 12 13 15 16 16 17 17 16
13 15 19 21 19 18 18 17 16 16 16 15 15 14 13 13 13 13 12 12 12 12 13 13 13 13 14 14 14 14 15 15 15 13 12 12 12 15 15 16 16 16 16
11 15 19 20 19 18 17 17 16 16 15 15 14 13 13 12 12 12 12 12 12 13 13 13 13 13 13 13 13 13 14 14 13 12 12 12 12 14 15 16 16 16 15
11 13 18 20 19 19 18 16 16 15 14 14 13 12 12 12 12 12 11 12 12 12 13 13 13 12 12 13 12 13 13 14 12 12 11 11 12 14 15 15 15 15 15
12 12 17 19 19 18 17 16 16 15 14 13 13 12 12 12 11 11 11 11 12 12 12 12 12 12 12 12 12 13 13 13 12 11 10 11 13 14 14 14 14 14 14
10 10 12 16 17 17 17 16 15 14 14 13 12 12 11 11 11 11 10 11 11 11 12 12 12 11 11 11 12 13 13 12 11 10 10 10 13 13 13 13 13 13 13
8 7 8 11 13 14 15 15 14 14 13 12 12 11 11 11 10 10 9 10 11 11 11 11 11 10 10 10 11 11 12 12 10 9 8 10 13 13 13 13 13 13 13
10 7 7 8 9 11 12 13 13 13 13 12 11 11 10 8 8 8 8 9 10 10 10 10 10 9 9 9 10 11 11 9 9 8 8 11 12 12 12 12 12 12 12
13 10 7 7 8 10 10 11 10 10 10 9 8 9 9 9 7 7 7 8 9 9 9 9 9 9 8 8 9 10 9 9 8 8 8 11 11 11 11 11 11 11 11
13 11 9 7 8 8 7 8 8 7 8 8 8 9 9 7 6 4 4 5 6 7 7 7 8 8 7 7 7 7 8 8 7 7 8 11 11 11 11 10 10 11 10
12 11 10 8 7 7 7 7 7 6 6 6 8 9 8 5 4 4 3 4 5 5 6 6 6 6 6 6 6 6 7 6 6 6 8 10 10 11 10 10 10 10 10
12 12 11 9 8 6 6 6 7 5 6 7 7 8 9 6 4 4 4 4 4 4 4 5 5 5 4 4 4 5 5 6 6 6 7 10 10 11 10 10 9 10 10
12 12 11 10 9 7 5 5 6 7 7 7 7 9 9 7 6 5 4 4 3 4 4 4 4 4 3 3 2 4 5 5 6 6 6 8 10 11 11 11 10 10 10
12 11 12 12 9 8 7 6 7 8 8 7 8 9 10 9 8 7 4 3 4 4 4 4 4 3 2 2 2 3 3 4 5 6 6 6 8 10 11 11 11 11 11
10 11 11 12 11 10 8 6 6 7 8 8 9 9 10 10 10 8 5 4 5 5 4 3 2 2 1 2 2 1 2 3 4 5 6 6 7 8 9 11 11 11 11
11 11 11 11 12 11 8 6 6 6 7 7 8 9 10 10 10 9 6 5 6 4 3 3 2 2 2 2 2 1 1 2 3 5 5 6 7 7 8 9 10 11 11
9 10 11 10 10 9 6 4 3 4 4 6 7 8 10 10 10 9 6 6 6 4 3 2 2 2 2 2 1 1 0 1 2 3 5 6 6 7 7 7 7 9 10
9 10 10 10 9 8 6 5 5 5 4 4 5 8 9 10 10 10 6 5 6 4 5 5 3 2 1 2 2 1 1 1 1 2 4 4 6 7 8 8 8 7 7
11 10 10 11 10 9 8 6 4 4 3 4 4 6 9 10 10 10 7 5 5 4 5 5 3 3 2 2 3 2 1 2 1 1 2 4 5 5 6 7 7 7 7
10 12 12 11 10 10 8 5 3 2 2 2 4 4 6 10 10 9 9 7 6 5 5 6 5 5 3 2 2 3 3 3 1 1 1 2 3 3 4 5 6 6 6
9 9 8 9 9 9 9 8 8 7 6 6 5 5 4 7 9 10 9 9 7 5 6 6 5 4 4 3 2 1 2 3 2 0 1 0 1 1 2 3 4 5 5
7 7 7 7 7 8 9 10 9 7 6 4 4 5 5 4 7 9 9 8 7 6 6 6 6 5 4 4 4 2 2 1 1 2 1 0 1 1 1 1 2 2 4
6 6 6 7 7 7 8 8 9 9 7 6 6 6 5 4 4 6 7 7 7 6 6 6 6 7 5 5 4 3 3 3 3 3 2 2 1 1 1 1 0 1 2
Wind_Direction
149 149 142 136 131 125 121 118 117 117 117 118 120 122 124 127 127 127 126 124 122 120 117 115 114 112 112 114 116 118 120 120 118 117 117 117 117 116 114 112 112 112 113
143 149 145 139 134 129 124 121 119 119 119 119 120 122 124 126 128 128 128 126 124 121 118 116 115 114 113 114 116 118 119 121 120 120 119 119 118 117 116 116 116 118 116
140 146 145 141 137 132 127 124 122 121 121 121 122 123 124 126 127 128 128 129 127 123 120 118 116 115 115 116 117 117 118 120 120 119 116 116 118 119 119 120 119 117 117
140 143 145 143 139 135 131 128 125 124 123 124 124 125 126 127 128 127 127 129 129 127 125 122 118 115 116 117 118 119 119 117 116 115 111 116 119 120 120 121 120 119 120
136 142 149 146 142 139 135 132 130 127 126 126 126 127 126 125 127 127 127 127 127 127 127 123 119 118 118 118 119 120 118 117 113 110 112 114 119 123 123 123 123 123 122
135 143 151 148 145 142 139 137 134 132 130 129 129 129 127 127 127 127 126 126 125 126 125 122 120 119 118 118 120 121 120 115 109 109 113 118 124 126 125 125 126 126 124
139 146 153 151 149 146 144 142 138 136 135 133 133 132 132 129 128 126 126 126 125 126 124 123 120 120 119 120 121 124 123 120 115 113 114 120 127 129 128 128 128 127 126
143 145 152 153 152 150 148 146 143 141 139 137 136 134 132 131 130 128 127 126 126 126 126 124 122 121 122 123 123 125 127 127 124 120 121 126 131 130 129 129 128 128 129
138 140 147 154 156 154 153 151 148 146 144 142 140 137 134 133 131 131 130 129 127 126 126 124 123 123 122 126 129 130 129 129 127 127 130 133 134 133 134 132 131 131 131
137 139 142 148 153 155 156 155 153 151 149 148 146 143 140 138 135 133 131 130 130 130 129 125 124 122 123 128 132 134 130 127 129 131 135 141 141 141 140 138 135 135 135
154 148 143 144 146 149 152 158 157 156 155 152 152 148 137 125 125 129 134 134 134 134 132 128 125 121 118 127 132 131 128 134 137 140 145 150 148 146 145 143 141 139 139
167 164 155 149 147 149 156 155 154 154 152 148 145 138 130 126 129 133 143 139 137 135 131 127 125 115 109 113 121 121 129 140 143 149 159 159 157 152 148 146 147 146 144
169 168 164 157 154 153 150 149 147 148 147 146 145 141 137 131 128 125 124 119 122 121 113 112 108 108 112 116 116 122 134 141 146 154 166 167 165 160 155 155 155 154 152
170 172 167 159 153 155 152 152 153 154 154 155 157 154 149 142 139 139 128 117 109 110 107 107 112 114 114 124 128 132 139 145 152 161 173 173 172 168 163 163 164 161 159
175 174 171 163 160 157 155 162 164 166 169 169 168 170 169 163 162 160 153 144 132 129 127 121 123 119 115 124 140 149 152 157 161 169 180 181 180 177 173 174 172 170 169
179 178 171 167 167 163 167 171 168 177 181 180 183 184 183 179 173 171 168 166 164 159 154 144 139 133 128 129 142 160 166 166 169 173 184 189 188 186 184 184 183 180 180
180 178 174 173 169 170 178 185 179 185 186 191 196 193 193 191 186 181 179 183 186 174 159 138 125 126 135 139 144 156 165 172 176 181 187 191 194 197 195 195 194 192 192
174 177 178 180 175 179 182 185 183 189 192 198 198 196 199 197 191 182 184 192 186 167 155 140 128 124 130 140 149 165 172 175 188 190 193 197 199 203 205 205 205 205 204
177 177 179 180 179 182 182 182 185 188 194 197 195 195 199 197 191 185 189 190 179 165 160 164 142 143 156 159 158 166 181 182 196 199 201 207 207 206 209 217 217 216 216
177 176 180 178 176 175 171 168 174 188 196 193 195 199 196 194 192 187 190 187 177 166 167 161 146 130 142 151 142 99 16 218 197 211 215 215 216 217 217 222 224 226 226
174 175 179 176 175 170 169 179 184 199 198 200 205 203 195 192 189 183 187 182 178 180 180 165 144 138 132 126 101 58 17 5 222 230 222 218 223 224 223 225 224 226 232
179 179 178 182 182 182 184 181 180 179 190 202 208 203 197 192 190 191 185 182 180 176 169 169 158 145 148 152 140 120 27 340 309 241 216 219 226 221 223 227 223 223 228
180 184 188 187 185 185 178 160 149 137 139 183 211 210 203 196 192 191 189 185 181 179 186 187 177 163 167 177 171 151 159 219 277 330 254 228 216 212 222 221 221 223 223
188 185 182 181 180 180 174 176 178 188 195 203 200 201 198 198 194 195 190 186 182 183 189 195 186 173 160 177 186 187 171 160 164 240 350 351 194 226 230 223 223 220 215
176 178 178 176 180 179 181 185 187 197 201 193 183 184 192 195 198 198 194 187 184 188 193 193 182 181 177 178 178 169 156 129 145 162 201 320 47 357 238 215 211 211 207
163 169 171 178 188 185 186 190 194 196 192 183 184 187 193 193 197 197 194 190 188 191 195 197 193 190 191 186 186 179 173 172 183 175 187 201 188 34 54 54 80 189 190
Height
1526 1529 1531 1533 1535 1537 1538 1539 1540 1542 1543 1544 1546 1547 1548 1549 1550 1552 1553 1554 1555 1556 1557 1558 1559 1560 1561 1562 1563 1564 1565 1566 1567 1568 1569 1570 1572 1573 1574 1575 1576 1578 1579
1525 1529 1532 1535 1537 1539 1540 1541 1543 1544 1545 1546 1548 1549 1550 1551 1552 1553 1555 1556 1557 1558 1559 1560 1561 1562 1563 1564 1565 1566 1567 1568 1569 1571 1572 1573 1574 1575 1576 1577 1579 1580 1581
1526 1530 1533 1536 1538 1540 1542 1543 1545 1546 1547 1548 1550 1551 1552 1553 1554 1555 1556 1557 1558 1559 1560 1562 1563 1564 1565 1566 1567 1568 1569 1571 1572 1573 1574 1575 1576 1577 1579 1580 1581 1582 1584
1528 1531 1534 1537 1540 1542 1544 1545 1547 1548 1549 1550 1552 1553 1554 1555 1556 1557 1558 1559 1560 1561 1562 1563 1565 1566 1567 1568 1569 1570 1571 1573 1574 1575 1576 1577 1579 1580 1581 1582 1583 1585 1586
1529 1533 1536 1539 1541 1543 1545 1547 1548 1550 1551 1552 1553 1555 1556 1557 1558 1559 1560 1561 1562 1563 1564 1565 1567 1568 1569 1570 1571 1573 1574 1575 1576 1577 1578 1580 1581 1582 1583 1584 1586 1587 1588
1531 1534 1537 1540 1543 1545 1547 1548 1550 1551 1553 1554 1555 1556 1557 1559 1560 1561 1562 1563 1564 1565 1566 1567 1569 1570 1571 1572 1573 1575 1576 1577 1578 1579 1581 1582 1583 1584 1585 1587 1588 1589 1590
1532 1536 1538 1541 1544 1546 1548 1550 1551 1553 1554 1555 1557 1558 1559 1560 1562 1563 1563 1564 1566 1567 1568 1569 1571 1572 1573 1574 1575 1577 1578 1579 1580 1582 1583 1584 1585 1587 1588 1589 1590 1591 1592
1533 1537 1540 1543 1545 1547 1549 1551 1553 1554 1556 1557 1558 1560 1561 1562 1563 1564 1565 1566 1567 1569 1570 1571 1573 1574 1575 1577 1578 1579 1580 1581 1582 1584 1585 1586 1587 1588 1590 1591 1592 1593 1594
1535 1538 1541 1543 1546 1548 1550 1552 1554 1556 1557 1559 1560 1561 1562 1564 1565 1566 1567 1568 1569 1571 1572 1573 1575 1576 1577 1579 1580 1581 1582 1583 1584 1585 1587 1588 1589 1590 1591 1593 1594 1595 1596
1536 1539 1541 1544 1547 1549 1551 1554 1555 1557 1558 1560 1562 1563 1564 1565 1567 1568 1569 1570 1571 1573 1574 1575 1577 1578 1579 1581 1582 1583 1584 1585 1586 1587 1588 1589 1591 1592 1593 1594 1595 1597 1598
1536 1539 1542 1545 1547 1550 1552 1554 1556 1558 1560 1561 1563 1564 1565 1566 1568 1569 1570 1572 1573 1574 1575 1577 1578 1580 1581 1583 1584 1584 1585 1586 1587 1589 1590 1591 1592 1593 1594 1596 1597 1598 1599
1535 1538 1542 1545 1547 1550 1552 1554 1557 1559 1560 1562 1564 1565 1567 1568 1569 1570 1572 1573 1575 1576 1577 1578 1580 1581 1583 1584 1585 1586 1587 1588 1589 1590 1591 1592 1593 1594 1596 1597 1598 1599 1600
1534 1538 1541 1544 1548 1550 1552 1555 1557 1559 1561 1563 1564 1566 1568 1569 1570 1572 1573 1574 1576 1577 1578 1580 1581 1583 1584 1585 1586 1587 1588 1589 1590 1591 1592 1593 1594 1595 1597 1598 1599 1600 1601
1534 1537 1541 1544 1547 1550 1553 1555 1557 1559 1561 1563 1565 1567 1569 1570 1571 1573 1574 1575 1577 1578 1580 1581 1582 1584 1585 1586 1588 1589 1589 1590 1591 1592 1593 1594 1595 1596 1598 1599 1600 1601 1602
1533 1537 1540 1543 1547 1550 1553 1556 1558 1560 1562 1564 1566 1568 1569 1571 1572 1574 1575 1577 1578 1579 1581 1582 1583 1585 1586 1587 1589 1590 1590 1591 1592 1593 1594 1595 1595 1597 1598 1599 1600 1602 1603
1533 1536 1539 1543 1546 1549 1552 1555 1558 1560 1563 1564 1566 1568 1570 1572 1573 1575 1576 1578 1579 1580 1582 1583 1584 1586 1587 1588 1589 1590 1591 1592 1593 1593 1594 1595 1596 1597 1598 1600 1601 1602 1603
1533 1536 1539 1542 1546 1549 1552 1555 1558 1560 1562 1564 1566 1568 1570 1572 1573 1575 1577 1578 1580 1581 1583 1584 1585 1586 1587 1588 1589 1591 1592 1593 1593 1594 1595 1596 1596 1597 1598 1599 1600 1601 1602
1532 1535 1538 1541 1544 1548 1551 1554 1557 1560 1562 1564 1566 1568 1570 1571 1573 1575 1577 1579 1580 1581 1583 1584 1585 1586 1587 1589 1590 1591 1592 1593 1594 1594 1595 1596 1596 1597 1598 1599 1600 1601 1602
1532 1535 1537 1540 1543 1546 1550 1553 1556 1559 1562 1564 1566 1567 1569 1571 1573 1575 1577 1578 1580 1581 1583 1584 1585 1586 1588 1589 1590 1591 1592 1593 1593 1594 1595 1595 1596 1597 1598 1599 1600 1601 1601
1531 1534 1536 1539 1541 1545 1548 1552 1555 1557 1560 1563 1565 1567 1569 1571 1572 1574 1576 1578 1579 1581 1582 1584 1585 1586 1587 1589 1589 1590 1591 1592 1593 1593 1594 1595 1596 1596 1597 1598 1599 1600 1601
1530 1532 1534 1537 1540 1543 1546 1549 1552 1555 1558 1560 1563 1566 1567 1570 1572 1573 1575 1577 1578 1580 1582 1583 1584 1585 1587 1588 1589 1590 1590 1591 1592 1592 1593 1594 1595 1596 1596 1597 1598 1599 1600
1527 1530 1533 1535 1537 1540 1543 1547 1550 1553 1556 1559 1561 1564 1566 1568 1570 1572 1574 1575 1577 1579 1581 1582 1583 1584 1586 1587 1588 1589 1589 1591 1590 1591 1592 1593 1594 1594 1595 1596 1597 1598 1598
1525 1527 1530 1533 1535 1538 1541 1545 1548 1551 1553 1556 1558 1560 1563 1566 1568 1570 1572 1574 1576 1578 1579 1581 1582 1583 1584 1586 1587 1588 1588 1588 1589 1590 1590 1591 1592 1593 1594 1594 1595 1596 1597
1524 1526 1529 1531 1534 1536 1539 1541 1544 1547 1549 1552 1555 1558 1560 1563 1566 1568 1570 1572 1574 1576 1577 1579 1580 1582 1583 1584 1585 1586 1588 1588 1588 1588 1589 1590 1591 1591 1592 1593 1594 1594 1595
1523 1525 1528 1530 1532 1534 1536 1539 1541 1543 1546 1549 1552 1555 1558 1561 1563 1566 1568 1570 1572 1573 1575 1577 1578 1580 1581 1582 1583 1584 1585 1586 1586 1587 1587 1588 1589 1590 1590 1591 1592 1593 1593
1522 1524 1526 1528 1530 1532 1534 1536 1538 1540 1543 1546 1549 1552 1555 1558 1560 1563 1565 1567 1569 1571 1573 1574 1576 1577 1579 1580 1581 1582 1583 1584 1584 1585 1586 1586 1587 1588 1588 1589 1590 1591 1591